Flag for Malaysia Weather past 2 weeks in Kuching, Malaysia

Now
73 °F

Broken clouds.


Feels Like: 70 °F
Forecast: 77 / 93 °F
Wind: No wind

Location: Kuching Airport

Current Time: Jul 3, 2015 at 7:41:52 AM

Latest Report: Jul 3, 2015 at 7:00 AM


Visibility: N/A

Pressure: 29.83 "Hg

Humidity: 94%

Dew point: 72 °F

Location of KuchingLocation

Historic Weather in Kuching — Graph

°F

Kuching temperature yesterday

Maximum temperature yesterday: 91 °F (at 1:00 PM)
Minimum temperature yesterday: 75 °F (at 6:00 AM)
Average temperature yesterday: 84 °F

Past Weeks' High & Low Weather Summary

 TemperatureHumidityPressure
High95 °F (Jun 27, 3:00 PM)100% (Jun 18, 7:00 AM)30.01 "Hg (Jun 18, 7:00 AM)
Low73 °F (Jul 3, 5:30 AM)44% (Jul 1, 2:30 PM)29.71 "Hg (Jun 18, 2:30 PM)
Average84 °F80%29.84 "Hg
* Reported Jun 18 6:00 AM — Jul 3 6:30 AM, Kuching, Weather by CustomWeather, © 2015

Note: Actual official high and low records may vary slightly from our data, if they occured in-between our weather recording intervals... More about our weather records

Advertising

Kuching weather history for previous 24 hours

 ConditionsComfort  
Time TempWeatherWind HumidityBarometerVisibility
6:30 AM
Fri, Jul 3
73 °FPartly cloudy.2 mph94%29.83 "HgN/A
6:00 AM73 °FPassing clouds.2 mph100%29.83 "Hg6 mi
5:30 AM73 °FPassing clouds.2 mph100%29.83 "HgN/A
5:00 AM75 °FPassing clouds.No wind94%29.83 "HgN/A
4:30 AM75 °FPassing clouds.1 mph94%29.83 "HgN/A
4:00 AM75 °FPassing clouds.2 mph94%29.83 "HgN/A
3:30 AM75 °FPassing clouds.1 mph94%29.83 "HgN/A
3:00 AM77 °FPassing clouds.1 mph89%29.83 "HgN/A
2:30 AM77 °FPassing clouds.3 mph89%29.83 "HgN/A
2:00 AM77 °FPassing clouds.3 mph89%29.83 "HgN/A
1:30 AM77 °FPassing clouds.2 mph94%29.86 "HgN/A
1:00 AM79 °FPassing clouds.2 mph89%29.86 "HgN/A
12:30 AM79 °FPassing clouds.1 mph89%29.86 "HgN/A
12:00 AM81 °FPassing clouds.2 mph79%29.89 "HgN/A
11:30 PM
Thu, Jul 2
81 °FPassing clouds.1 mph79%29.86 "HgN/A
11:00 PM81 °FPassing clouds.No wind79%29.86 "HgN/A
10:30 PM82 °FPartly cloudy.1 mph74%29.86 "HgN/A
10:00 PM82 °FPartly cloudy.1 mph74%29.86 "HgN/A
9:30 PM82 °FPartly cloudy.2 mph74%29.86 "HgN/A
9:00 PM84 °FPartly cloudy.1 mph70%29.86 "HgN/A
8:30 PM84 °FPartly cloudy.3 mph70%29.83 "HgN/A
8:00 PM84 °FPartly cloudy.2 mph74%29.83 "HgN/A
7:30 PM86 °FPassing clouds.3 mph66%29.80 "HgN/A
7:00 PM88 °FPassing clouds.3 mph62%29.80 "HgN/A
6:30 PM90 °FBroken clouds.7 mph59%29.80 "HgN/A
6:00 PM90 °FPartly sunny.7 mph59%29.80 "HgN/A
5:30 PM90 °FBroken clouds.3 mph63%29.80 "HgN/A
5:00 PM90 °FBroken clouds.6 mph63%29.77 "HgN/A
4:30 PM91 °FBroken clouds.7 mph59%29.77 "HgN/A
4:00 PM91 °FBroken clouds.8 mph59%29.77 "HgN/A
3:30 PM91 °FBroken clouds.10 mph59%29.77 "HgN/A
3:00 PM91 °FBroken clouds.9 mph63%29.80 "HgN/A
2:30 PM91 °FBroken clouds.9 mph59%29.80 "HgN/A
2:00 PM91 °FBroken clouds.7 mph59%29.83 "HgN/A
1:30 PM91 °FBroken clouds.8 mph59%29.83 "HgN/A
1:00 PM91 °FPartly sunny.8 mph59%29.86 "HgN/A
12:30 PM90 °FPartly sunny.10 mph63%29.86 "HgN/A
12:00 PM90 °FPartly sunny.9 mph63%29.89 "HgN/A
11:30 AM90 °FPartly sunny.10 mph63%29.89 "HgN/A
11:00 AM88 °FPartly sunny.9 mph62%29.89 "HgN/A
10:30 AM88 °FPartly sunny.10 mph66%29.92 "HgN/A
10:00 AM86 °FPartly sunny.9 mph66%29.92 "HgN/A
9:30 AM84 °FPartly sunny.7 mph70%29.92 "HgN/A
9:00 AM81 °FPartly sunny.3 mph79%29.92 "HgN/A
8:30 AM79 °FPartly sunny.5 mph84%29.92 "HgN/A
8:00 AM79 °FPartly sunny.2 mph89%29.92 "HgN/A
7:30 AM77 °FPartly sunny.2 mph89%29.92 "HgN/A
7:00 AM75 °FPartly sunny.No wind94%29.89 "HgN/A
Weather by CustomWeather, © 2015

See weather overviewHow to use our weather pages